Home   Weather   Palestine   Past weeks

Flag for USA Past Weather in Palestine, Texas, USA — Yesterday and Last 2 Weeks

Now
79 °F

Sunny.


Feels Like: 79 °F
Forecast: 59 / 77 °F
Wind: 10 mph from Northeast

Location: Palestine Municipal Airport

Current Time: Sep 29, 2016 at 3:34:08 PM

Latest Report: Sep 29, 2016 at 2:55 PM


Visibility: 10 mi

Pressure: 30.20 "Hg

Humidity: 35%

Dew Point: 49 °F

Location of PalestineLocation

Past Weather in Palestine — Graph

°F

Palestine Temperature Yesterday

Maximum temperature yesterday: 83 °F (at 5:15 PM)
Minimum temperature yesterday: 56 °F (at 7:55 AM)
Average temperature yesterday: 69 °F

High & Low Weather Summary for the Past Weeks

 TemperatureHumidityPressure
High96 °F (Sep 19, 3:35 PM)100% (Sep 16, 6:15 AM)30.26 "Hg (Sep 16, 6:15 AM)
Low56 °F (Sep 28, 7:55 AM)32% (Sep 28, 4:35 PM)29.90 "Hg (Sep 16, 4:15 PM)
Average79 °F78%30.03 "Hg
* Reported Sep 14 2:15 PM — Sep 29 2:15 PM, Palestine, Weather by CustomWeather, © 2016

Note: Actual official high and low records may vary slightly from our data, if they occured in-between our weather recording intervals... More about our weather records

Advertising

Palestine Weather History for the Previous 24 Hours

Scroll right to see more
 ConditionsComfort  
Time TempWeatherWind HumidityBarometerVisibility
2:15 PM
Thu, Sep 29
78 °FSunny.10 mph38%30.22 "Hg10 mi
1:55 PM78 °FSunny.12 mph38%30.23 "Hg10 mi
1:15 PM77 °FSunny.8 mph41%30.25 "Hg10 mi
12:55 PM76 °FSunny.12 mph45%30.25 "Hg10 mi
12:15 PM74 °FSunny.6 mph48%30.26 "Hg10 mi
11:55 AM73 °FSunny.12 mph48%30.26 "Hg10 mi
11:35 AM73 °FSunny.10 mph49%30.26 "Hg10 mi
11:15 AM72 °FSunny.13 mph51%30.26 "Hg10 mi
10:55 AM72 °FSunny.14 mph52%30.26 "Hg10 mi
10:35 AM70 °FSunny.10 mph56%30.25 "Hg10 mi
10:15 AM69 °FSunny.15 mph58%30.25 "Hg10 mi
9:55 AM68 °FSunny.10 mph60%30.23 "Hg10 mi
9:35 AM67 °FSunny.14 mph62%30.23 "Hg10 mi
9:15 AM66 °FSunny.10 mph66%30.21 "Hg10 mi
8:55 AM66 °FSunny.8 mph67%30.21 "Hg10 mi
8:35 AM65 °FSunny.9 mph70%30.20 "Hg10 mi
8:15 AM64 °FSunny.7 mph73%30.19 "Hg10 mi
7:55 AM63 °FSunny.8 mph74%30.18 "Hg10 mi
7:35 AM63 °FSunny.7 mph76%30.18 "Hg10 mi
7:15 AM63 °FSunny.6 mph75%30.18 "Hg10 mi
6:55 AM64 °FClear.6 mph73%30.17 "Hg10 mi
6:35 AM65 °FClear.7 mph74%30.16 "Hg10 mi
6:15 AM65 °FClear.6 mph73%30.15 "Hg10 mi
5:55 AM65 °FClear.7 mph73%30.14 "Hg10 mi
5:35 AM66 °FClear.7 mph74%30.13 "Hg10 mi
5:15 AM67 °FClear.8 mph72%30.12 "Hg10 mi
4:55 AM67 °FClear.10 mph72%30.11 "Hg10 mi
4:35 AM67 °FClear.9 mph72%30.10 "Hg10 mi
4:15 AM67 °FClear.8 mph73%30.09 "Hg10 mi
3:55 AM66 °FClear.8 mph76%30.09 "Hg10 mi
3:15 AM60 °FClear.5 mph90%30.09 "Hg10 mi
2:55 AM60 °FClear.3 mph93%30.09 "Hg10 mi
2:35 AM60 °FClear.3 mph92%30.09 "Hg10 mi
2:15 AM61 °FClear.No wind93%30.08 "Hg10 mi
1:55 AM60 °FClear.No wind92%30.08 "Hg10 mi
1:35 AM61 °FClear.No wind89%30.08 "Hg10 mi
1:15 AM60 °FClear.No wind95%30.08 "Hg10 mi
12:55 AM60 °FClear.No wind95%30.08 "Hg10 mi
12:15 AM61 °FClear.No wind96%30.08 "Hg10 mi
11:55 PM
Wed, Sep 28
60 °FClear.No wind97%30.08 "Hg10 mi
11:35 PM61 °FClear.No wind97%30.08 "Hg10 mi
11:15 PM61 °FClear.No wind96%30.08 "Hg10 mi
10:55 PM61 °FClear.No wind96%30.08 "Hg10 mi
10:35 PM62 °FClear.No wind95%30.07 "Hg10 mi
10:15 PM63 °FClear.No wind93%30.07 "Hg10 mi
9:55 PM63 °FClear.No wind94%30.06 "Hg10 mi
9:15 PM64 °FClear.No wind92%30.05 "Hg10 mi
8:55 PM65 °FClear.No wind90%30.05 "Hg10 mi
8:15 PM67 °FClear.No wind87%30.05 "Hg10 mi
7:55 PM68 °FClear.No wind84%30.04 "Hg10 mi
7:15 PM76 °FClear.No wind56%30.04 "Hg10 mi
6:55 PM80 °FSunny.No wind42%30.04 "Hg10 mi
6:35 PM82 °FSunny.3 mph37%30.04 "Hg10 mi
6:15 PM83 °FSunny.3 mph33%30.04 "Hg10 mi
5:55 PM83 °FSunny.3 mph32%30.04 "Hg10 mi
5:35 PM83 °FSunny.3 mph32%30.04 "Hg10 mi
5:15 PM83 °FSunny.No wind32%30.04 "Hg10 mi
4:55 PM83 °FSunny.5 mph35%30.03 "Hg10 mi
4:35 PM83 °FSunny.No wind32%30.03 "Hg10 mi
4:15 PM83 °FSunny.5 mph33%30.03 "Hg10 mi
3:55 PM83 °FSunny.5 mph33%30.04 "Hg10 mi
3:35 PM83 °FSunny.3 mph35%30.05 "Hg10 mi
3:15 PM83 °FSunny.5 mph37%30.05 "Hg10 mi
Weather by CustomWeather, © 2016

See weather overviewHow to use our weather pages